| time (UTC) | temp F | wind direction | speed MPH | gust MPH | rain 1hr in | rain 24hr in | rain mn in | humidity % | barometer mb |
| 20260505090032 | 52 | 0 | 0.0 | 0.0 | 0.00 | 0.00 | 0.00 | 92 | 1014.2 |
| 20260505084530 | 52 | 0 | 0.0 | 0.0 | 0.00 | 0.00 | 0.00 | 91 | 1013.8 |
| 20260505083036 | 53 | 0 | 0.0 | 0.0 | 0.00 | 0.00 | 0.00 | 91 | 1013.8 |
| 20260505081530 | 53 | 0 | 0.0 | 0.0 | 0.00 | 0.00 | 0.00 | 91 | 1013.8 |
| 20260505080030 | 53 | 0 | 0.0 | 0.0 | 0.00 | 0.00 | 0.00 | 91 | 1013.8 |
| 20260505074529 | 53 | 0 | 0.0 | 0.0 | 0.00 | 0.00 | 0.00 | 91 | 1014.0 |
| 20260505073030 | 53 | 0 | 0.0 | 0.0 | 0.00 | 0.00 | 0.00 | 90 | 1013.9 |
| 20260505071529 | 54 | 0 | 0.0 | 0.0 | 0.00 | 0.00 | 0.00 | 90 | 1014.0 |
| 20260505070030 | 54 | 0 | 0.0 | 0.0 | 0.00 | 0.00 | 0.00 | 90 | 1014.3 |
| 20260505064527 | 54 | 0 | 0.0 | 0.0 | 0.00 | 0.00 | 0.00 | 90 | 1014.6 |
| 20260505063029 | 54 | 0 | 0.0 | 0.0 | 0.00 | 0.00 | 0.00 | 89 | 1015.0 |
| 20260505061529 | 54 | 0 | 0.0 | 0.0 | 0.00 | 0.00 | 0.00 | 89 | 1015.0 |
| 20260505060026 | 54 | 0 | 0.0 | 0.0 | 0.00 | 0.00 | 0.00 | 89 | 1015.3 |
| 20260505054541 | 55 | 0 | 0.0 | 0.0 | 0.00 | 0.00 | 0.00 | 89 | 1015.3 |
| 20260505053029 | 55 | 0 | 0.0 | 0.0 | 0.00 | 0.00 | 0.00 | 88 | 1015.6 |
| 20260505051528 | 55 | 0 | 0.0 | 0.0 | 0.00 | 0.00 | 0.00 | 89 | 1015.5 |
| 20260505041531 | 56 | 0 | 0.0 | 0.0 | 0.00 | 0.00 | 0.00 | 87 | 1015.8 |
| 20260505040040 | 57 | 0 | 0.0 | 0.0 | 0.00 | 0.00 | 0.00 | 86 | 1015.7 |
| 20260505034536 | 58 | 0 | 0.0 | 0.0 | 0.00 | 0.00 | 0.00 | 85 | 1015.6 |
| 20260505033030 | 58 | 0 | 0.0 | 0.0 | 0.00 | 0.00 | 0.00 | 85 | 1015.7 |
| 20260505031533 | 59 | 0 | 0.0 | 0.0 | 0.00 | 0.00 | 0.00 | 84 | 1015.8 |
| 20260505030028 | 59 | 0 | 0.0 | 0.0 | 0.00 | 0.00 | 0.00 | 83 | 1015.7 |
| 20260505024528 | 59 | 0 | 0.0 | 0.0 | 0.00 | 0.00 | 0.00 | 83 | 1015.5 |
| 20260505023031 | 60 | 0 | 0.0 | 0.0 | 0.00 | 0.00 | 0.00 | 81 | 1015.4 |
| 20260505021529 | 61 | 0 | 0.0 | 0.0 | 0.00 | 0.00 | 0.00 | 80 | 1015.5 |
| 20260505020037 | 61 | 0 | 0.0 | 0.0 | 0.00 | 0.00 | 0.00 | 79 | 1015.6 |
| 20260505014530 | 62 | 0 | 0.0 | 0.0 | 0.00 | 0.00 | 0.00 | 77 | 1015.6 |
| 20260505013030 | 62 | 0 | 0.0 | 0.0 | 0.00 | 0.00 | 0.00 | 75 | 1015.6 |
| 20260505011530 | 63 | 0 | 0.0 | 0.0 | 0.00 | 0.00 | 0.00 | 72 | 1015.8 |
| 20260505010027 | 65 | 0 | 0.0 | 0.0 | 0.00 | 0.00 | 0.00 | 70 | 1015.7 |
| 20260505004528 | 66 | 0 | 0.0 | 0.0 | 0.00 | 0.00 | 0.00 | 67 | 1015.7 |
| 20260505003027 | 68 | 0 | 0.0 | 2.0 | 0.00 | 0.00 | 0.00 | 63 | 1015.8 |
| 20260505001528 | 69 | 154 | 1.0 | 4.0 | 0.00 | 0.00 | 0.00 | 61 | 1015.8 |
| 20260505000042 | 70 | 160 | 1.0 | 5.0 | 0.00 | 0.00 | 0.00 | 59 | 1015.8 |
| 20260504234528 | 71 | 157 | 2.0 | 6.0 | 0.00 | 0.00 | 0.00 | 57 | 1016.0 |
| 20260504233030 | 71 | 198 | 1.0 | 8.0 | 0.00 | 0.00 | 0.00 | 57 | 1015.9 |
| 20260504231530 | 71 | 134 | 3.0 | 9.0 | 0.00 | 0.00 | 0.00 | 54 | 1015.7 |
| 20260504230028 | 72 | 169 | 3.0 | 9.0 | 0.00 | 0.00 | 0.00 | 53 | 1015.7 |
| 20260504224528 | 72 | 134 | 2.0 | 7.0 | 0.00 | 0.00 | 0.00 | 52 | 1016.0 |
| 20260504223028 | 73 | 175 | 3.0 | 9.0 | 0.00 | 0.00 | 0.00 | 49 | 1016.0 |
| 20260504221529 | 75 | 163 | 1.0 | 9.0 | 0.00 | 0.00 | 0.00 | 47 | 1016.0 |
| 20260504220042 | 75 | 289 | 2.0 | 8.0 | 0.00 | 0.00 | 0.00 | 45 | 1015.9 |
| 20260504214534 | 76 | 203 | 3.0 | 9.0 | 0.00 | 0.00 | 0.00 | 44 | 1016.0 |
| 20260504213031 | 76 | 150 | 2.0 | 9.0 | 0.00 | 0.00 | 0.00 | 44 | 1015.8 |
| 20260504211536 | 76 | 94 | 4.0 | 9.0 | 0.00 | 0.00 | 0.00 | 42 | 1016.0 |
| 20260504210030 | 76 | 203 | 3.0 | 11.0 | 0.00 | 0.00 | 0.00 | 42 | 1016.1 |
| 20260504204538 | 77 | 164 | 4.0 | 9.0 | 0.00 | 0.00 | 0.00 | 40 | 1016.1 |
| 20260504203028 | 77 | 134 | 1.0 | 11.0 | 0.00 | 0.00 | 0.00 | 42 | 1016.1 |
| 20260504201528 | 77 | 160 | 4.0 | 11.0 | 0.00 | 0.00 | 0.00 | 42 | 1016.2 |
| 20260504200030 | 79 | 173 | 2.0 | 8.0 | 0.00 | 0.00 | 0.00 | 39 | 1016.2 |
| 20260504194528 | 78 | 276 | 1.0 | 12.0 | 0.00 | 0.00 | 0.00 | 39 | 1016.4 |
| 20260504193030 | 79 | 215 | 5.0 | 10.0 | 0.00 | 0.00 | 0.00 | 36 | 1016.7 |
| 20260504191529 | 79 | 141 | 2.0 | 6.0 | 0.00 | 0.00 | 0.00 | 36 | 1016.7 |
| 20260504190030 | 79 | 162 | 2.0 | 6.0 | 0.00 | 0.00 | 0.00 | 37 | 1017.1 |
| 20260504184527 | 79 | 192 | 4.0 | 10.0 | 0.00 | 0.00 | 0.00 | 36 | 1017.2 |
| 20260504183030 | 78 | 167 | 3.0 | 10.0 | 0.00 | 0.00 | 0.00 | 35 | 1017.3 |
| 20260504181531 | 79 | 157 | 4.0 | 8.0 | 0.00 | 0.00 | 0.00 | 36 | 1017.6 |
| 20260504180028 | 80 | 139 | 1.0 | 7.0 | 0.00 | 0.00 | 0.00 | 38 | 1017.7 |
| 20260504174530 | 79 | 311 | 1.0 | 7.0 | 0.00 | 0.00 | 0.00 | 37 | 1017.7 |
| 20260504173030 | 78 | 137 | 4.0 | 9.0 | 0.00 | 0.00 | 0.00 | 36 | 1017.7 |
| 20260504171528 | 78 | 116 | 1.0 | 7.0 | 0.00 | 0.00 | 0.00 | 37 | 1018.0 |